Marrakech, Morocco

9:02 AM WEST on August 22, 2017 (GMT +0100)
Marrakech

Weather History for GMMX - September, 2012

Change the Weather History Date:

Thursday, September 20, 2012

  Actual Average Record
Temperature  
Mean Temperature 80 °F -  
Max Temperature 93 °F 83 °F 98 °F (2003)
Min Temperature 66 °F 60 °F 53 °F (2000)
Cooling Degree Days 14    
Growing Degree Days 30 (Base 50)    
Moisture  
Dew Point 64 °F    
Average Humidity 65    
Maximum Humidity 94    
Minimum Humidity 25    
Precipitation  
Precipitation 0.00 in 0.02 in - ()
Sea Level Pressure  
Sea Level Pressure 29.96 in    
Wind  
Wind Speed 5 mph ()    
Max Wind Speed 12 mph    
Max Gust Speed -    
Visibility 6.1 miles    
Events      
Averages and records for this station are not official NWS values.
T = Trace of Precipitation, MM = Missing Value Source: Averaged Metar Reports

Daily Weather History Graph

Daily Weather History Graph

Search for Another Location

Airport or City:

Trip Planner

Search our weather history database for the weather conditions in past years. The results will help you decide how hot, cold, wet, or windy it might be!

Date:

Astronomy

Sep. 20, 2012 Rise Set
Actual Time 7:19 AM WEST 7:31 PM WEST
Civil Twilight 6:55 AM WEST 7:55 PM WEST
Nautical Twilight 6:26 AM WEST 8:23 PM WEST
Astronomical Twilight 5:57 AM WEST 8:52 PM WEST
Moon 12:01 PM WEST (9/20) 10:42 PM WEST (9/20)
Length of Visible Light 13h 00m
Length of Day
12h 11m
Waxing Crescent, 24% of the Moon is Illuminated
Sep 20
Waxing Crescent
Sep 22
First Quarter
Sep 30
Full
Oct 8
Last Quarter
Oct 15
New

Hourly Weather History & Observations

Time (WEST) Temp. Heat Index Dew Point Humidity Pressure Visibility Wind Dir Wind Speed Gust Speed Precip Events Conditions
12:00 AM 73.4 °F - 64.4 °F 73% 30.01 in - WSW 9.2 mph - N/A   Clear
12:30 AM 71.6 °F - 64.4 °F 78% 30.01 in - WSW 8.1 mph - N/A   Clear
1:00 AM 71.6 °F - 64.4 °F 78% 30.01 in - WSW 8.1 mph - N/A   Clear
1:30 AM 69.8 °F - 64.4 °F 83% 30.01 in - West 5.8 mph - N/A   Clear
2:00 AM 69.8 °F - 64.4 °F 83% 30.01 in - West 5.8 mph - N/A   Clear
2:30 AM 69.8 °F - 64.4 °F 83% 29.98 in - WSW 4.6 mph - N/A   Clear
3:00 AM 68.0 °F - 64.4 °F 88% 29.98 in - WSW 6.9 mph - N/A   Clear
3:30 AM 68.0 °F - 64.4 °F 88% 29.98 in - WSW 8.1 mph - N/A   Clear
4:00 AM 67 °F - 65 °F 91% 29.92 in 6 mi WSW 8.1 mph - -  
4:00 AM 68.0 °F - 64.4 °F 88% 29.98 in - WSW 8.1 mph - N/A   Clear
4:30 AM 68.0 °F - 64.4 °F 88% 29.98 in - WSW 6.9 mph - N/A   Clear
5:00 AM 68.0 °F - 66.2 °F 94% 29.95 in - WSW 5.8 mph - N/A   Clear
5:30 AM 68.0 °F - 66.2 °F 94% 29.95 in 6.2 mi West 5.8 mph - N/A   Scattered Clouds
6:00 AM 68.0 °F - 66.2 °F 94% 29.95 in 5.0 mi West 4.6 mph - N/A   Mostly Cloudy
6:30 AM 68.0 °F - 66.2 °F 94% 29.98 in 5.0 mi West 3.5 mph - N/A   Scattered Clouds
7:00 AM 69 °F - 65 °F 85% 29.92 in 5 mi West 3.5 mph - -   Mostly Cloudy
7:00 AM 68.0 °F - 66.2 °F 94% 29.98 in 5.0 mi West 3.5 mph - N/A   Mostly Cloudy
7:30 AM 68.0 °F - 66.2 °F 94% 29.98 in 6.2 mi West 4.6 mph - N/A   Mostly Cloudy
8:00 AM 69.8 °F - 66.2 °F 88% 29.98 in 6.2 mi West 4.6 mph - N/A   Mostly Cloudy
8:30 AM 69.8 °F - 66.2 °F 88% 29.98 in 6.2 mi West 3.5 mph - N/A   Mostly Cloudy
9:00 AM 69.8 °F - 66.2 °F 88% 29.98 in 6.2 mi West 3.5 mph - N/A   Mostly Cloudy
9:30 AM 71.6 °F - 66.2 °F 83% 29.98 in 6.2 mi Calm Calm - N/A   Mostly Cloudy
10:00 AM 74 °F - 67 °F 72% 29.92 in 6 mi WNW 1.2 mph - -   Mostly Cloudy
10:00 AM 73.4 °F - 66.2 °F 78% 29.98 in 6.2 mi Calm Calm - N/A   Mostly Cloudy
10:30 AM 75.2 °F - 66.2 °F 73% 29.98 in 6.2 mi Calm Calm - N/A   Overcast
11:00 AM 77.0 °F - 66.2 °F 69% 30.01 in 6.2 mi Calm Calm - N/A   Overcast
11:28 AM 78.8 °F - 64.4 °F 61% 29.98 in 6.2 mi Calm Calm - N/A   Mostly Cloudy
11:30 AM 78.8 °F - 64.4 °F 61% 29.98 in 6.2 mi Calm Calm - N/A   Overcast
12:00 PM 80.6 °F 82.3 °F 64.4 °F 58% 29.98 in 6.2 mi Calm Calm - N/A   Mostly Cloudy
12:30 PM 84.2 °F 85.6 °F 64.4 °F 51% 29.98 in 6.2 mi SW 4.6 mph - N/A   Mostly Cloudy
1:00 PM 85 °F - 65 °F 41% 29.88 in 6 mi North 3.5 mph - -   Partly Cloudy
1:00 PM 84.2 °F 85.6 °F 64.4 °F 51% 29.98 in 6.2 mi North 4.6 mph - N/A   Mostly Cloudy
1:30 PM 84.2 °F 85.6 °F 64.4 °F 51% 29.98 in 6.2 mi Variable 1.2 mph - N/A   Partly Cloudy
2:00 PM 86.0 °F 87.3 °F 64.4 °F 48% 29.95 in 6.2 mi Variable 4.6 mph - N/A   Partly Cloudy
2:30 PM 87.8 °F 88.5 °F 62.6 °F 43% 29.95 in 6.2 mi NE 3.5 mph - N/A   Partly Cloudy
3:00 PM 87.8 °F 88.5 °F 62.6 °F 43% 29.95 in 6.2 mi NE 3.5 mph - N/A   Partly Cloudy
3:30 PM - - - N/A% 29.92 in 6.2 mi NNW 4.6 mph - N/A   Partly Cloudy
4:00 PM 90 °F - 60 °F 27% 29.81 in 6 mi NW 4.6 mph - -   Scattered Clouds
4:00 PM 89.6 °F 88.9 °F 59.0 °F 36% 29.92 in 6.2 mi NW 5.8 mph - N/A   Partly Cloudy
4:30 PM 91.4 °F 90.7 °F 59.0 °F 34% 29.92 in 6.2 mi WNW 3.5 mph - N/A   Partly Cloudy
5:00 PM 91.4 °F 90.7 °F 59.0 °F 34% 29.92 in 6.2 mi NW 3.5 mph - N/A   Partly Cloudy
5:30 PM 93.2 °F 92.6 °F 59.0 °F 32% 29.92 in 6.2 mi WNW 3.5 mph - N/A   Partly Cloudy
6:00 PM 91.4 °F 90.7 °F 59.0 °F 34% 29.92 in 6.2 mi West 3.5 mph - N/A   Partly Cloudy
6:30 PM 89.6 °F 88.1 °F 57.2 °F 33% 29.92 in 6.2 mi West 3.5 mph - N/A   Partly Cloudy
7:00 PM 89 °F - 58 °F 25% 29.82 in 6 mi West 5.8 mph - -   Scattered Clouds
7:00 PM 89.6 °F 88.1 °F 57.2 °F 33% 29.92 in 6.2 mi West 5.8 mph - N/A   Partly Cloudy
7:30 PM 86.0 °F 85.4 °F 59.0 °F 40% 29.92 in 6.2 mi West 8.1 mph - N/A   Partly Cloudy
8:00 PM 84.2 °F 83.8 °F 59.0 °F 42% 29.92 in 6.2 mi WSW 6.9 mph - N/A   Partly Cloudy
8:30 PM 82.4 °F 82.5 °F 59.0 °F 45% 29.95 in 6.2 mi West 9.2 mph - N/A   Partly Cloudy
9:00 PM 80.6 °F 81.1 °F 59.0 °F 48% 29.95 in 6.2 mi West 9.2 mph - N/A   Partly Cloudy
9:30 PM 80.6 °F 82.3 °F 64.4 °F 58% 29.98 in 6.2 mi North 11.5 mph - N/A   Partly Cloudy
10:00 PM 78 °F - 65 °F 56% 29.91 in 6 mi North 10.4 mph - -   Scattered Clouds
10:00 PM 78.8 °F - 66.2 °F 65% 29.98 in 6.2 mi North 10.4 mph - N/A   Partly Cloudy
10:30 PM 77.0 °F - 64.4 °F 65% 29.98 in 6.2 mi NNE 9.2 mph - N/A   Partly Cloudy
11:00 PM 77.0 °F - 64.4 °F 65% 30.01 in - North 3.5 mph - N/A   Clear
11:30 PM 75.2 °F - 64.4 °F 69% 30.01 in - Calm Calm - N/A   Clear